SBI5314 UNAA-UNNT

Flight info

Callsign SBI5314
Flight time 1h 3m
Altitude 36000
Route DOREM1D DOREM A308 RATKO R116 KESED B926 NATIR NATIR1K
Aircraft A319/M-SDE3FGHIRWY/LB1

Departure

Time 2026-04-23 23:47
Airport Abakan International Airport (UNAA)

Arrival

Time 2026-04-24 00:51
Airport Novosibirsk Tolmachevo Airport (UNNT)
Time Latitude Longitude Altitude Speed Heading
2026-04-23 23:12 53.75002 91.39903 747 ft 0 kts 162°
2026-04-23 23:42 53.74996 91.39907 780 ft 2 kts 162°
2026-04-23 23:43 53.74971 91.39919 807 ft 5 kts 169°
2026-04-23 23:43 53.74942 91.39879 808 ft 7 kts 249°
2026-04-23 23:43 53.74924 91.39787 808 ft 9 kts 252°
2026-04-23 23:43 53.74914 91.39735 808 ft 5 kts 251°
2026-04-23 23:44 53.74920 91.39666 809 ft 7 kts 294°
2026-04-23 23:44 53.74945 91.39572 811 ft 10 kts 294°
2026-04-23 23:44 53.74979 91.39450 811 ft 13 kts 295°
2026-04-23 23:44 53.75008 91.39343 810 ft 6 kts 291°
2026-04-23 23:45 53.74990 91.39282 811 ft 6 kts 213°
2026-04-23 23:45 53.74969 91.39266 811 ft 0 kts 205°
2026-04-23 23:46 53.74962 91.39260 811 ft 2 kts 205°
2026-04-23 23:46 53.74927 91.39232 813 ft 13 kts 205°
2026-04-23 23:47 53.74601 91.38978 812 ft 97 kts 204°
2026-04-23 23:47 53.73752 91.38321 826 ft 165 kts 204°
2026-04-23 23:47 53.72677 91.37508 1395 ft 173 kts 205°
2026-04-23 23:47 53.71564 91.36644 2063 ft 179 kts 205°
2026-04-23 23:48 53.70392 91.35720 2604 ft 193 kts 206°
2026-04-23 23:48 53.69093 91.34686 3024 ft 218 kts 207°
2026-04-23 23:48 53.67714 91.33606 3930 ft 220 kts 208°
2026-04-23 23:48 53.66309 91.32529 4876 ft 223 kts 209°
2026-04-23 23:49 53.63464 91.30393 6705 ft 227 kts 208°
2026-04-23 23:49 53.62006 91.29279 7616 ft 228 kts 209°
2026-04-23 23:49 53.60581 91.28175 8521 ft 230 kts 208°
2026-04-23 23:50 53.59132 91.27018 9448 ft 232 kts 212°
2026-04-23 23:50 53.57999 91.25120 10177 ft 234 kts 243°
2026-04-23 23:50 53.57612 91.22473 10991 ft 239 kts 269°
2026-04-23 23:50 53.58069 91.19763 11838 ft 249 kts 296°
2026-04-23 23:51 53.59047 91.17330 12725 ft 251 kts 299°
2026-04-23 23:51 53.60047 91.14903 13600 ft 252 kts 299°
2026-04-23 23:51 53.61046 91.12466 14351 ft 254 kts 299°
2026-04-23 23:51 53.62053 91.09989 15079 ft 258 kts 299°
2026-04-23 23:52 53.63069 91.07481 15803 ft 261 kts 299°
2026-04-23 23:52 53.64094 91.04940 16515 ft 264 kts 299°
2026-04-23 23:52 53.65122 91.02391 17214 ft 267 kts 300°
2026-04-23 23:52 53.66189 90.99750 17939 ft 271 kts 300°
2026-04-23 23:53 53.67245 90.97139 18563 ft 274 kts 301°
2026-04-23 23:53 53.68538 90.94716 19169 ft 284 kts 314°
2026-04-23 23:53 53.70267 90.92775 19336 ft 311 kts 325°
2026-04-23 23:53 53.72221 90.90920 19459 ft 332 kts 325°
2026-04-23 23:54 53.74292 90.88940 19588 ft 351 kts 325°
2026-04-23 23:54 53.76475 90.86850 19710 ft 369 kts 326°
2026-04-23 23:54 53.78754 90.84676 20016 ft 381 kts 326°
2026-04-23 23:54 53.81081 90.82461 20531 ft 386 kts 326°
2026-04-23 23:55 53.83401 90.80245 21083 ft 389 kts 326°
2026-04-23 23:55 53.85772 90.77970 21623 ft 393 kts 325°
2026-04-23 23:55 53.88160 90.75673 22163 ft 396 kts 325°
2026-04-23 23:55 53.90560 90.73335 22686 ft 398 kts 323°
2026-04-23 23:56 53.92761 90.70525 23195 ft 396 kts 313°
2026-04-23 23:56 53.94629 90.67109 23639 ft 393 kts 303°
2026-04-23 23:56 53.96101 90.63218 24064 ft 392 kts 294°
2026-04-23 23:56 53.97378 90.59114 24486 ft 394 kts 294°
2026-04-23 23:57 53.98673 90.55000 24908 ft 396 kts 294°
2026-04-23 23:57 53.99985 90.50858 25310 ft 399 kts 294°
2026-04-23 23:57 54.01308 90.46682 25707 ft 402 kts 294°
2026-04-23 23:57 54.02639 90.42481 26120 ft 405 kts 294°
2026-04-23 23:58 54.03976 90.38251 26523 ft 407 kts 294°
2026-04-23 23:58 54.05322 90.33983 26915 ft 410 kts 294°
2026-04-23 23:58 54.06671 90.29697 27306 ft 413 kts 294°
2026-04-23 23:58 54.08027 90.25367 27702 ft 416 kts 294°
2026-04-23 23:59 54.09394 90.20998 28093 ft 418 kts 294°
2026-04-23 23:59 54.10767 90.16607 28459 ft 421 kts 294°
2026-04-23 23:59 54.12145 90.12201 28824 ft 423 kts 294°
2026-04-23 23:59 54.13532 90.07750 29178 ft 426 kts 293°
2026-04-24 00:00 54.14917 90.03278 29532 ft 428 kts 293°
2026-04-24 00:00 54.16293 89.98825 29858 ft 431 kts 293°
2026-04-24 00:00 54.17691 89.94280 30139 ft 433 kts 293°
2026-04-24 00:00 54.19097 89.89699 30443 ft 435 kts 293°
2026-04-24 00:01 54.20505 89.85132 30854 ft 434 kts 293°
2026-04-24 00:01 54.21938 89.80587 31297 ft 433 kts 294°
2026-04-24 00:01 54.23384 89.76097 31732 ft 432 kts 294°
2026-04-24 00:01 54.24844 89.71610 32192 ft 430 kts 294°
2026-04-24 00:02 54.26294 89.67144 32640 ft 429 kts 294°
2026-04-24 00:02 54.27735 89.62678 33082 ft 427 kts 294°
2026-04-24 00:02 54.29166 89.58227 33520 ft 426 kts 294°
2026-04-24 00:02 54.30584 89.53785 33934 ft 424 kts 294°
2026-04-24 00:03 54.31990 89.49344 34309 ft 423 kts 294°
2026-04-24 00:03 54.33370 89.44973 34679 ft 422 kts 294°
2026-04-24 00:03 54.34766 89.40556 35029 ft 421 kts 294°
2026-04-24 00:03 54.36156 89.36140 35372 ft 420 kts 294°
2026-04-24 00:04 54.37541 89.31725 35658 ft 420 kts 294°
2026-04-24 00:04 54.38927 89.27317 35739 ft 419 kts 294°
2026-04-24 00:04 54.41692 89.18517 35745 ft 418 kts 294°
2026-04-24 00:05 54.44452 89.09710 35747 ft 419 kts 294°
2026-04-24 00:05 54.47201 89.00886 35745 ft 418 kts 294°
2026-04-24 00:06 54.49937 88.92058 35747 ft 418 kts 294°
2026-04-24 00:06 54.52667 88.83218 35743 ft 418 kts 294°
2026-04-24 00:07 54.55392 88.74373 35747 ft 418 kts 294°
2026-04-24 00:07 54.58104 88.65511 35749 ft 418 kts 293°
2026-04-24 00:08 54.60720 88.56578 35761 ft 417 kts 292°
2026-04-24 00:08 54.63243 88.47633 35762 ft 416 kts 291°
2026-04-24 00:09 54.65779 88.38648 35771 ft 416 kts 292°
2026-04-24 00:09 54.68332 88.29674 35771 ft 415 kts 292°
2026-04-24 00:10 54.70443 88.22221 35770 ft 415 kts 291°
2026-04-24 00:10 54.72968 88.13242 35761 ft 414 kts 291°
2026-04-24 00:11 54.75494 88.04265 35768 ft 414 kts 291°
2026-04-24 00:11 54.78002 87.95363 35764 ft 414 kts 291°
2026-04-24 00:12 54.80504 87.86391 35765 ft 413 kts 291°
2026-04-24 00:12 54.82990 87.77396 35762 ft 413 kts 291°
2026-04-24 00:13 54.85482 87.68407 35763 ft 413 kts 291°
2026-04-24 00:13 54.87954 87.59455 35764 ft 413 kts 291°
2026-04-24 00:14 54.90427 87.50451 35767 ft 413 kts 291°
2026-04-24 00:14 54.92889 87.41428 35772 ft 413 kts 291°
2026-04-24 00:15 54.95346 87.32394 35774 ft 413 kts 291°
2026-04-24 00:15 54.97787 87.23327 35779 ft 413 kts 290°
2026-04-24 00:16 55.00200 87.14240 35787 ft 413 kts 290°
2026-04-24 00:16 55.02595 87.05206 35783 ft 414 kts 290°
2026-04-24 00:17 55.04997 86.96091 35804 ft 414 kts 290°
2026-04-24 00:17 55.07395 86.86957 35805 ft 414 kts 290°
2026-04-24 00:18 55.09794 86.77801 35788 ft 414 kts 290°
2026-04-24 00:18 55.10990 86.73221 35540 ft 414 kts 290°
2026-04-24 00:18 55.12184 86.68650 35298 ft 413 kts 290°
2026-04-24 00:19 55.13380 86.64067 35070 ft 413 kts 290°
2026-04-24 00:19 55.14573 86.59487 34829 ft 413 kts 289°
2026-04-24 00:19 55.15746 86.54970 34595 ft 413 kts 289°
2026-04-24 00:19 55.16927 86.50392 34365 ft 413 kts 289°
2026-04-24 00:20 55.18098 86.45854 34133 ft 404 kts 289°
2026-04-24 00:20 55.19243 86.41430 33897 ft 393 kts 289°
2026-04-24 00:20 55.20356 86.37117 33640 ft 385 kts 288°
2026-04-24 00:20 55.21445 86.32877 33374 ft 380 kts 288°
2026-04-24 00:21 55.22522 86.28657 33100 ft 378 kts 288°
2026-04-24 00:21 55.23589 86.24449 32555 ft 379 kts 288°
2026-04-24 00:21 55.24662 86.20196 31881 ft 380 kts 288°
2026-04-24 00:21 55.25709 86.15981 31421 ft 374 kts 284°
2026-04-24 00:22 55.26461 86.11590 30154 ft 382 kts 275°
2026-04-24 00:22 55.26764 86.06888 28718 ft 393 kts 266°
2026-04-24 00:22 55.26607 86.02162 28267 ft 382 kts 261°
2026-04-24 00:22 55.26369 85.97567 27700 ft 377 kts 262°
2026-04-24 00:23 55.26160 85.93049 27062 ft 375 kts 263°
2026-04-24 00:23 55.25958 85.88505 26425 ft 372 kts 263°
2026-04-24 00:23 55.25755 85.84004 25797 ft 369 kts 264°
2026-04-24 00:23 55.25547 85.79550 25173 ft 366 kts 264°
2026-04-24 00:24 55.25334 85.75115 24559 ft 364 kts 265°
2026-04-24 00:24 55.25116 85.70707 23941 ft 362 kts 265°
2026-04-24 00:24 55.24898 85.66320 23325 ft 360 kts 266°
2026-04-24 00:24 55.24678 85.61956 22659 ft 358 kts 266°
2026-04-24 00:25 55.24457 85.57620 22116 ft 354 kts 266°
2026-04-24 00:25 55.24236 85.53341 21568 ft 351 kts 266°
2026-04-24 00:25 55.24015 85.49094 21073 ft 348 kts 266°
2026-04-24 00:25 55.23794 85.44875 20565 ft 346 kts 267°
2026-04-24 00:26 55.23574 85.40700 20092 ft 342 kts 267°
2026-04-24 00:26 55.23357 85.36561 19613 ft 340 kts 267°
2026-04-24 00:26 55.23142 85.32507 19146 ft 336 kts 267°
2026-04-24 00:26 55.22925 85.28433 18666 ft 334 kts 267°
2026-04-24 00:27 55.22711 85.24397 18194 ft 331 kts 267°
2026-04-24 00:27 55.22494 85.20392 17664 ft 329 kts 267°
2026-04-24 00:27 55.22275 85.16424 17171 ft 325 kts 267°
2026-04-24 00:27 55.22056 85.12497 16677 ft 322 kts 267°
2026-04-24 00:28 55.21842 85.08600 16168 ft 320 kts 267°
2026-04-24 00:28 55.21632 85.04784 15682 ft 317 kts 267°
2026-04-24 00:28 55.21419 85.00937 15173 ft 316 kts 267°
2026-04-24 00:28 55.21206 84.97116 14671 ft 314 kts 266°
2026-04-24 00:29 55.20994 84.93313 14163 ft 313 kts 266°
2026-04-24 00:29 55.20780 84.89515 13659 ft 313 kts 266°
2026-04-24 00:29 55.20565 84.85735 13106 ft 311 kts 266°
2026-04-24 00:29 55.20349 84.81982 12593 ft 309 kts 266°
2026-04-24 00:30 55.20133 84.78256 12080 ft 306 kts 266°
2026-04-24 00:30 55.19918 84.74597 11571 ft 304 kts 266°
2026-04-24 00:30 55.19696 84.70915 11053 ft 303 kts 265°
2026-04-24 00:30 55.19217 84.67307 10694 ft 309 kts 256°
2026-04-24 00:31 55.18579 84.63665 10626 ft 316 kts 257°
2026-04-24 00:31 55.17947 84.59982 10551 ft 316 kts 257°
2026-04-24 00:31 55.17317 84.56285 10488 ft 316 kts 257°
2026-04-24 00:31 55.16699 84.52668 10379 ft 303 kts 257°
2026-04-24 00:32 55.16106 84.49219 10256 ft 289 kts 257°
2026-04-24 00:32 55.15534 84.45927 10133 ft 276 kts 257°
2026-04-24 00:32 55.14984 84.42772 9978 ft 266 kts 257°
2026-04-24 00:32 55.14450 84.39710 9806 ft 261 kts 257°
2026-04-24 00:33 55.13922 84.36670 9682 ft 261 kts 257°
2026-04-24 00:33 55.13397 84.33642 9548 ft 260 kts 257°
2026-04-24 00:33 55.12871 84.30621 9406 ft 260 kts 257°
2026-04-24 00:33 55.12345 84.27601 9285 ft 259 kts 257°
2026-04-24 00:34 55.11819 84.24591 9142 ft 259 kts 257°
2026-04-24 00:34 55.11290 84.21578 9013 ft 259 kts 257°
2026-04-24 00:34 55.10770 84.18619 8920 ft 258 kts 257°
2026-04-24 00:34 55.10235 84.15580 8925 ft 258 kts 257°
2026-04-24 00:35 55.09712 84.12622 8931 ft 258 kts 257°
2026-04-24 00:35 55.09180 84.09621 8938 ft 258 kts 257°
2026-04-24 00:35 55.08649 84.06628 8938 ft 258 kts 257°
2026-04-24 00:35 55.08123 84.03629 8934 ft 258 kts 259°
2026-04-24 00:36 55.07850 84.00551 8873 ft 255 kts 268°
2026-04-24 00:36 55.07668 83.97481 8779 ft 254 kts 267°
2026-04-24 00:36 55.07483 83.94407 8692 ft 254 kts 267°
2026-04-24 00:36 55.07297 83.91337 8603 ft 254 kts 267°
2026-04-24 00:37 55.07110 83.88272 8518 ft 254 kts 267°
2026-04-24 00:37 55.06919 83.85206 8431 ft 254 kts 267°
2026-04-24 00:37 55.06727 83.82145 8348 ft 254 kts 267°
2026-04-24 00:37 55.06535 83.79080 8256 ft 254 kts 267°
2026-04-24 00:38 55.06344 83.76020 8174 ft 254 kts 267°
2026-04-24 00:38 55.06152 83.72959 8090 ft 254 kts 267°
2026-04-24 00:38 55.05959 83.69903 8004 ft 253 kts 267°
2026-04-24 00:38 55.05768 83.66885 7920 ft 253 kts 267°
2026-04-24 00:39 55.05574 83.63838 7830 ft 253 kts 267°
2026-04-24 00:39 55.05376 83.60790 7749 ft 253 kts 267°
2026-04-24 00:39 55.05179 83.57741 7665 ft 253 kts 267°
2026-04-24 00:39 55.04982 83.54698 7579 ft 253 kts 267°
2026-04-24 00:40 55.04786 83.51653 7497 ft 252 kts 267°
2026-04-24 00:40 55.04589 83.48617 7362 ft 249 kts 267°
2026-04-24 00:40 55.04393 83.45662 7207 ft 242 kts 267°
2026-04-24 00:40 55.04201 83.42757 7062 ft 241 kts 267°
2026-04-24 00:41 55.04010 83.39856 6912 ft 240 kts 267°
2026-04-24 00:41 55.03820 83.36963 6768 ft 240 kts 267°
2026-04-24 00:41 55.03547 83.34082 6621 ft 243 kts 257°
2026-04-24 00:41 55.02825 83.31428 6477 ft 249 kts 240°
2026-04-24 00:42 55.01777 83.29005 6324 ft 251 kts 238°
2026-04-24 00:42 55.00719 83.26587 6165 ft 251 kts 238°
2026-04-24 00:42 54.99672 83.24198 6034 ft 242 kts 238°
2026-04-24 00:42 54.98669 83.21917 5886 ft 232 kts 238°
2026-04-24 00:43 54.97696 83.19700 5737 ft 230 kts 238°
2026-04-24 00:43 54.96729 83.17487 5574 ft 229 kts 238°
2026-04-24 00:43 54.95779 83.15313 5401 ft 222 kts 238°
2026-04-24 00:43 54.94855 83.13211 5203 ft 215 kts 238°
2026-04-24 00:44 54.94010 83.11125 4993 ft 206 kts 251°
2026-04-24 00:44 54.93691 83.08822 4791 ft 195 kts 275°
2026-04-24 00:44 54.93951 83.06584 4577 ft 186 kts 297°
2026-04-24 00:44 54.94671 83.04776 4318 ft 181 kts 314°
2026-04-24 00:45 54.95504 83.03159 4105 ft 177 kts 313°
2026-04-24 00:45 54.96315 83.01562 3905 ft 174 kts 313°
2026-04-24 00:45 54.97103 83.00006 3749 ft 169 kts 313°
2026-04-24 00:45 54.97878 82.98477 3598 ft 168 kts 314°
2026-04-24 00:46 54.98648 82.96958 3439 ft 167 kts 314°
2026-04-24 00:46 54.99418 82.95436 3290 ft 168 kts 314°
2026-04-24 00:46 55.00184 82.93918 3152 ft 165 kts 314°
2026-04-24 00:46 55.00930 82.92439 3019 ft 161 kts 314°
2026-04-24 00:47 55.01664 82.90986 2886 ft 159 kts 314°
2026-04-24 00:47 55.02398 82.89533 2755 ft 159 kts 314°
2026-04-24 00:47 55.02990 82.87911 2621 ft 159 kts 292°
2026-04-24 00:47 55.03119 82.86028 2584 ft 161 kts 271°
2026-04-24 00:48 55.02957 82.84102 2339 ft 163 kts 266°
2026-04-24 00:48 55.02779 82.82155 2095 ft 157 kts 266°
2026-04-24 00:48 55.02615 82.80346 1895 ft 149 kts 266°
2026-04-24 00:48 55.02460 82.78621 1693 ft 139 kts 266°
2026-04-24 00:49 55.02317 82.77007 1514 ft 129 kts 266°
2026-04-24 00:49 55.02181 82.75496 1326 ft 125 kts 265°
2026-04-24 00:49 55.02047 82.73991 1132 ft 127 kts 264°
2026-04-24 00:49 55.01912 82.72449 942 ft 130 kts 263°
2026-04-24 00:50 55.01776 82.70898 757 ft 127 kts 262°
2026-04-24 00:50 55.01636 82.69384 595 ft 126 kts 262°
2026-04-24 00:50 55.01499 82.67896 413 ft 122 kts 263°
2026-04-24 00:50 55.01375 82.66503 375 ft 105 kts 262°
2026-04-24 00:51 55.01311 82.65772 372 ft 22 kts 260°
2026-04-24 00:51 55.01286 82.65519 373 ft 21 kts 261°
2026-04-24 00:51 55.01264 82.65275 373 ft 20 kts 260°
2026-04-24 00:51 55.01240 82.65069 373 ft 12 kts 237°
2026-04-24 00:52 55.01156 82.65064 373 ft 13 kts 171°
2026-04-24 00:52 55.01065 82.65089 373 ft 13 kts 171°
2026-04-24 00:52 55.00985 82.65111 373 ft 10 kts 171°
2026-04-24 00:52 55.00915 82.65130 373 ft 11 kts 171°
2026-04-24 00:53 55.00882 82.65181 373 ft 7 kts 87°
2026-04-24 00:53 55.00885 82.65273 373 ft 8 kts 88°
2026-04-24 00:53 55.00892 82.65381 373 ft 10 kts 81°
2026-04-24 00:53 55.00903 82.65505 373 ft 11 kts 81°
2026-04-24 00:54 55.00915 82.65642 373 ft 10 kts 82°
2026-04-24 00:54 55.00925 82.65755 373 ft 10 kts 81°
2026-04-24 00:54 55.00937 82.65885 373 ft 12 kts 81°
2026-04-24 00:54 55.00949 82.66008 373 ft 10 kts 82°
2026-04-24 00:55 55.00958 82.66100 373 ft 8 kts 74°
2026-04-24 00:55 55.00974 82.66169 373 ft 4 kts 86°
2026-04-24 00:55 55.00949 82.66197 373 ft 5 kts 169°
2026-04-24 00:55 55.00935 82.66201 373 ft 2 kts 170°
2026-04-24 00:56 55.00926 82.66204 373 ft 1 kts 170°